[[{"header":{"parameterUnit":"m.s-1","parameterCategory":1,"la1":30.2991,"la2":30.254,"lo1":-89.0895,"lo2":-89.0444,"dy":0.0017,"dx":0.0017,"nx":28,"ny":28,"refTime":"2023-07-26T21:00:00:Z","depth":0,"parameterNumber":2,"parameterNumberName":"U-component_of_WINDS"},"data":[0,0,0,0,0,0,0,0,0,0,0,0,0,0,0,0,0,0,0,0,0,0,0,0,0,0,0,0,0,0,0,0,0,0,0,0,0,0,0,0,0,0,0,0,0,0,0,0,0,0,0,0,0,0,0,0,0,0,-0.0976,-0.0976,0,-0.1045,-0.1045,-0.1046,-0.1064,-0.1063,-0.1063,-0.1062,-0.1134,-0.1136,-0.1138,0,0,0,0,0,0,0,0,0,0,0,0,0,-0.0858,-0.086,-0.0975,-0.0976,-0.0977,-0.1045,-0.1045,-0.1046,-0.1064,-0.1063,-0.1063,-0.1062,-0.1133,-0.1136,-0.1139,0,0,0,0,0,0,0,0,0,0,0,0,0,-0.0916,-0.0861,-0.0975,-0.0994,-0.0996,-0.1044,-0.1045,-0.1047,-0.1064,-0.1063,-0.1062,-0.1062,-0.1132,-0.1136,-0.1139,-0.1174,0,0,-0.115,-0.1151,0,0,0,0,0,0,0,0,-0.0913,-0.0921,-0.099,-0.0993,-0.0995,-0.1045,-0.103,-0.1089,-0.1064,-0.1038,-0.1062,-0.1062,-0.1105,-0.111,-0.1125,-0.1177,-0.118,-0.115,-0.1152,-0.1154,-0.1154,0,0,0,0,0,0,0,-0.0909,-0.0918,-0.1003,-0.0991,-0.0994,-0.0999,-0.1006,-0.1042,-0.1074,-0.104,-0.1042,-0.105,-0.1106,-0.1122,-0.1127,-0.1181,-0.115,-0.1153,-0.1155,-0.1156,-0.1264,-0.1265,0,0,0,0,0,0,-0.0902,-0.0914,-0.1001,-0.1005,-0.0952,-0.1001,-0.101,-0.103,-0.1074,-0.108,-0.105,-0.105,-0.1116,-0.1123,-0.1129,-0.1173,-0.1153,-0.1157,-0.1159,-0.1264,-0.1265,-0.1265,0,0,0,0,0,0,-0.0899,-0.0909,-0.0998,-0.096,-0.0972,-0.1004,-0.1026,-0.1031,-0.1047,-0.1081,-0.1087,-0.106,-0.1116,-0.1124,-0.1162,-0.1176,-0.1158,-0.1161,-0.1263,-0.1264,-0.1265,-0.126,0,0,0,0,0,0,-0.0896,-0.0908,-0.0922,-0.096,-0.0974,-0.103,-0.1027,-0.1033,-0.1053,-0.1053,-0.1092,-0.1098,-0.1116,-0.1157,-0.1166,-0.118,-0.1164,-0.1262,-0.1263,-0.1265,-0.1259,-0.1261,-0.1263,0,0,0,0,0,-0.0891,-0.0918,-0.0923,-0.0933,-0.0991,-0.1031,-0.1038,-0.1058,-0.1054,-0.1068,-0.109,-0.1097,-0.1172,-0.1161,-0.1171,-0.1186,-0.1261,-0.1263,-0.1265,-0.1259,-0.1261,-0.1263,0,0,0,0,0,0,-0.0881,-0.0924,-0.0929,-0.0969,-0.0996,-0.1033,-0.1052,-0.106,-0.1089,-0.1088,-0.1112,-0.112,-0.1157,-0.1175,-0.1161,-0.1222,-0.1217,-0.122,-0.1209,-0.1211,-0.1213,-0.1208,-0.1167,0,0,0,0,0,-0.0884,-0.0912,-0.0947,-0.0979,-0.0992,-0.102,-0.1037,-0.105,-0.1079,-0.1091,-0.1116,-0.1144,-0.1174,-0.1193,-0.1223,-0.1261,-0.127,-0.1277,-0.1278,-0.128,-0.1283,-0.1305,-0.1308,-0.1271,-0.1271,-0.1271,0,0,-0.0889,-0.0916,-0.0932,-0.0978,-0.1,-0.1029,-0.1029,-0.106,-0.1081,-0.1096,-0.1133,-0.1152,-0.1185,-0.1223,-0.1241,-0.124,-0.1295,-0.1282,-0.1282,-0.1286,-0.1307,-0.131,-0.1313,-0.1272,-0.1272,-0.1272,0,0,-0.0914,-0.0937,-0.0966,-0.0988,-0.1021,-0.1039,-0.1046,-0.1082,-0.1095,-0.1132,-0.1143,-0.1169,-0.122,-0.1243,-0.1261,-0.1292,-0.13,-0.1301,-0.131,-0.1331,-0.1334,-0.1336,-0.1348,-0.1352,-0.1304,-0.1304,-0.1304,0,-0.0917,-0.0961,-0.098,-0.1009,-0.1029,-0.1042,-0.1071,-0.1092,-0.1133,-0.1147,-0.1144,-0.1208,-0.1231,-0.1274,-0.1282,-0.1296,-0.1304,-0.1298,-0.1332,-0.1335,-0.1337,-0.1349,-0.1353,-0.1304,-0.1304,-0.1304,-0.1304,0,-0.0962,-0.0992,-0.1011,-0.1051,-0.1072,-0.1102,-0.1125,-0.1144,-0.1154,-0.1172,-0.1209,-0.1237,-0.1272,-0.1283,-0.1294,-0.1328,-0.1326,-0.1327,-0.1323,-0.1341,-0.1352,-0.1356,-0.1304,-0.1304,-0.1304,-0.1304,0,0,-0.0985,-0.1033,-0.104,-0.1057,-0.1095,-0.1118,-0.1147,-0.1181,-0.1197,-0.1225,-0.125,-0.1292,-0.1293,-0.1314,-0.1327,-0.1345,-0.1367,-0.1344,-0.1345,-0.1348,-0.1407,-0.1407,-0.1411,-0.1372,-0.1373,-0.1374,-0.1405,0,-0.1015,-0.1068,-0.1085,-0.113,-0.1157,-0.1169,-0.1195,-0.122,-0.1237,-0.1262,-0.1281,-0.1311,-0.1309,-0.1322,-0.134,-0.1361,-0.138,-0.1359,-0.1396,-0.1397,-0.1389,-0.1417,-0.1417,-0.1445,-0.1409,-0.141,-0.141,0,-0.1058,-0.1086,-0.1132,-0.1165,-0.1177,-0.12,-0.1232,-0.1256,-0.1284,-0.1295,-0.1317,-0.1328,-0.1359,-0.1351,-0.1394,-0.1379,-0.1395,-0.1408,-0.1409,-0.1415,-0.1406,-0.1424,-0.1455,-0.1459,-0.1417,-0.1416,-0.1416,0,-0.1071,-0.1119,-0.1153,-0.1168,-0.1207,-0.1222,-0.1239,-0.1267,-0.1286,-0.1313,-0.1325,-0.1356,-0.1373,-0.1397,-0.1415,-0.1408,-0.1456,-0.145,-0.1467,-0.1466,-0.1478,-0.1477,-0.1512,-0.1486,-0.1486,-0.1486,-0.1486,0,-0.1103,-0.1132,-0.116,-0.1181,-0.1212,-0.1231,-0.1262,-0.1279,-0.1304,-0.1328,-0.134,-0.1363,-0.1385,-0.1411,-0.1426,-0.1459,-0.1466,-0.1476,-0.148,-0.1476,-0.1475,-0.1488,-0.1487,-0.1487,-0.1487,-0.1487,-0.1486,0,-0.1123,-0.1143,-0.1181,-0.1214,-0.1223,-0.1245,-0.1273,-0.1294,-0.131,-0.1341,-0.1349,-0.1375,-0.1406,-0.1426,-0.1466,-0.1476,-0.1512,-0.1515,-0.1502,-0.1504,-0.152,-0.1518,-0.1566,-0.1573,-0.1541,-0.1541,-0.1541,0,-0.1144,-0.1166,-0.12,-0.1217,-0.1234,-0.1261,-0.128,-0.1299,-0.1318,-0.1351,-0.1368,-0.1399,-0.1425,-0.1473,-0.1496,-0.1526,-0.153,-0.1544,-0.1535,-0.153,-0.1531,-0.153,-0.1532,-0.1546,-0.1547,-0.1547,-0.1547,0,-0.1177,-0.1186,-0.1212,-0.1242,-0.1264,-0.1288,-0.1313,-0.1326,-0.1349,-0.1369,-0.1401,-0.1421,-0.146,-0.1491,-0.1523,-0.154,-0.1548,-0.155,-0.1555,-0.1552,-0.1544,-0.1549,-0.1507,-0.1549,-0.1549,-0.1549,-0.1548,-0.1548,-0.1199,-0.1219,-0.1246,-0.1275,-0.1295,-0.1317,-0.1338,-0.1356,-0.1382,-0.1416,-0.1425,-0.1457,-0.1484,-0.1527,-0.1545,-0.157,-0.1569,-0.1577,-0.1579,-0.1581,-0.1581,-0.1538,-0.1576,-0.1576,-0.1576,-0.1576,-0.1576,0,-0.1234,-0.1251,-0.1278,-0.1311,-0.1333,-0.1337,-0.1364,-0.1383,-0.1411,-0.1435,-0.146,-0.1495,-0.1525,-0.1548,-0.1579,-0.1595,-0.1599,-0.1602,-0.1602,-0.1606,-0.158,-0.1573,-0.1598,-0.1598,-0.1598,-0.1598,-0.1598,-0.1598,-0.1255,-0.1288,-0.1299,-0.1343,-0.136,-0.1391,-0.1406,-0.1427,-0.1446,-0.1485,-0.1509,-0.1524,-0.1548,-0.158,-0.1607,-0.1613,-0.1624,-0.1627,-0.1634,-0.161,-0.1608,-0.1605,-0.1598,-0.1629,-0.1629,-0.1657,-0.1657,-0.1658]},{"header":{"parameterUnit":"m.s-1","parameterCategory":1,"la1":30.2991,"la2":30.254,"lo1":-89.0895,"lo2":-89.0444,"dy":0.0017,"dx":0.0017,"nx":28,"ny":28,"refTime":"2023-07-26T21:00:00:Z","depth":0,"parameterNumber":3,"parameterNumberName":"V-component_of_WINDS"},"data":[0,0,0,0,0,0,0,0,0,0,0,0,0,0,0,0,0,0,0,0,0,0,0,0,0,0,0,0,0,0,0,0,0,0,0,0,0,0,0,0,0,0,0,0,0,0,0,0,0,0,0,0,0,0,0,0,0,0,-0.5602,-0.5602,0,-0.5557,-0.5556,-0.5556,-0.5504,-0.5503,-0.5502,-0.5501,-0.5453,-0.5453,-0.5452,0,0,0,0,0,0,0,0,0,0,0,0,0,-0.5645,-0.5644,-0.5603,-0.5602,-0.5601,-0.5557,-0.5556,-0.5555,-0.5504,-0.5503,-0.5502,-0.5501,-0.5453,-0.5453,-0.5452,0,0,0,0,0,0,0,0,0,0,0,0,0,-0.5615,-0.5644,-0.5603,-0.557,-0.5567,-0.5557,-0.5556,-0.5555,-0.5504,-0.5503,-0.5502,-0.5501,-0.5454,-0.5453,-0.5452,-0.547,0,0,-0.5449,-0.5449,0,0,0,0,0,0,0,0,-0.5617,-0.5614,-0.5576,-0.5572,-0.5569,-0.5535,-0.5553,-0.5527,-0.5504,-0.5528,-0.5501,-0.55,-0.5481,-0.5478,-0.5472,-0.5468,-0.5465,-0.5449,-0.5449,-0.5448,-0.5448,0,0,0,0,0,0,0,-0.5619,-0.5616,-0.5584,-0.5575,-0.5571,-0.5558,-0.5552,-0.5548,-0.5512,-0.5526,-0.5522,-0.5517,-0.5479,-0.5473,-0.547,-0.5465,-0.5449,-0.5449,-0.5448,-0.5448,-0.5474,-0.5475,0,0,0,0,0,0,-0.5626,-0.5618,-0.5586,-0.5583,-0.5591,-0.5558,-0.5552,-0.5547,-0.5511,-0.5505,-0.5518,-0.5515,-0.5475,-0.5471,-0.5469,-0.5488,-0.5449,-0.5448,-0.5447,-0.5473,-0.5474,-0.5475,0,0,0,0,0,0,-0.5627,-0.5624,-0.5588,-0.5599,-0.5594,-0.5559,-0.5553,-0.5546,-0.554,-0.5506,-0.5499,-0.5519,-0.5474,-0.547,-0.547,-0.5486,-0.5447,-0.5447,-0.5471,-0.5473,-0.5475,-0.5527,0,0,0,0,0,0,-0.5629,-0.5625,-0.5631,-0.56,-0.5593,-0.559,-0.5554,-0.5546,-0.5539,-0.5534,-0.5504,-0.5498,-0.5473,-0.5472,-0.5469,-0.5484,-0.5446,-0.547,-0.5472,-0.5474,-0.5523,-0.553,-0.5536,0,0,0,0,0,-0.5631,-0.5647,-0.5632,-0.5628,-0.5601,-0.5591,-0.5588,-0.5558,-0.554,-0.5547,-0.5525,-0.5499,-0.5484,-0.5472,-0.5469,-0.5483,-0.5469,-0.5471,-0.5474,-0.5521,-0.5529,-0.5535,0,0,0,0,0,0,-0.568,-0.5642,-0.5625,-0.5632,-0.5615,-0.5583,-0.559,-0.5567,-0.5555,-0.5551,-0.5515,-0.5509,-0.5514,-0.5498,-0.5486,-0.5499,-0.5473,-0.5475,-0.5509,-0.5517,-0.5523,-0.5527,-0.5445,0,0,0,0,0,-0.5692,-0.5688,-0.5655,-0.5664,-0.5657,-0.5625,-0.562,-0.5599,-0.558,-0.5573,-0.555,-0.5533,-0.5524,-0.5519,-0.551,-0.5521,-0.5514,-0.5529,-0.5535,-0.554,-0.5543,-0.5549,-0.5555,-0.5484,-0.5484,-0.5484,0,0,-0.5717,-0.5695,-0.5695,-0.5674,-0.5659,-0.5655,-0.5619,-0.5617,-0.5614,-0.5572,-0.5572,-0.5555,-0.5533,-0.5539,-0.5541,-0.5527,-0.5561,-0.5544,-0.5548,-0.5548,-0.5552,-0.5559,-0.5565,-0.5486,-0.5486,-0.5485,0,0,-0.576,-0.5743,-0.5749,-0.5735,-0.5713,-0.5691,-0.5693,-0.5664,-0.5652,-0.5651,-0.5619,-0.5615,-0.5601,-0.5587,-0.5578,-0.5617,-0.5593,-0.5615,-0.5647,-0.5653,-0.5659,-0.5663,-0.5678,-0.5684,-0.5617,-0.5617,-0.5617,0,-0.5793,-0.5787,-0.5755,-0.5756,-0.5748,-0.571,-0.5716,-0.5704,-0.5679,-0.5675,-0.5659,-0.5641,-0.5623,-0.5627,-0.5636,-0.563,-0.5631,-0.5618,-0.566,-0.5665,-0.5669,-0.5683,-0.5688,-0.562,-0.562,-0.5619,-0.5619,0,-0.5829,-0.5826,-0.5833,-0.5812,-0.5804,-0.5808,-0.5777,-0.5773,-0.5753,-0.5734,-0.5734,-0.5711,-0.5697,-0.5696,-0.5675,-0.5696,-0.5688,-0.5667,-0.564,-0.5679,-0.5692,-0.5696,-0.5624,-0.5623,-0.5622,-0.5622,0,0,-0.5902,-0.5864,-0.5867,-0.5858,-0.583,-0.5827,-0.5829,-0.5815,-0.5813,-0.5798,-0.5799,-0.5788,-0.5769,-0.5759,-0.5736,-0.5742,-0.5775,-0.572,-0.5719,-0.5732,-0.5798,-0.5815,-0.5822,-0.5759,-0.576,-0.5761,-0.58,0,-0.5941,-0.5943,-0.5915,-0.5924,-0.5921,-0.5885,-0.5887,-0.5871,-0.5852,-0.5847,-0.5826,-0.582,-0.5794,-0.5788,-0.5792,-0.5771,-0.5788,-0.5767,-0.576,-0.576,-0.5768,-0.5828,-0.5846,-0.5884,-0.5805,-0.5806,-0.5806,0,-0.5987,-0.5975,-0.5984,-0.5958,-0.5955,-0.5958,-0.5943,-0.5938,-0.5919,-0.5906,-0.5895,-0.587,-0.587,-0.5844,-0.5844,-0.583,-0.5826,-0.5815,-0.5816,-0.5815,-0.5786,-0.5829,-0.5895,-0.5902,-0.5813,-0.5813,-0.5812,0,-0.6041,-0.6027,-0.6031,-0.6023,-0.5992,-0.5995,-0.5982,-0.5962,-0.5956,-0.5943,-0.5939,-0.5927,-0.592,-0.5911,-0.5883,-0.5867,-0.5887,-0.5858,-0.5876,-0.5877,-0.5882,-0.5883,-0.595,-0.5878,-0.5878,-0.5878,-0.5878,0,-0.6088,-0.6095,-0.6055,-0.6058,-0.6065,-0.6033,-0.6041,-0.6024,-0.6007,-0.6006,-0.5973,-0.5973,-0.5936,-0.5932,-0.591,-0.5914,-0.591,-0.59,-0.5894,-0.5903,-0.5905,-0.59,-0.5897,-0.5879,-0.5879,-0.5879,-0.5879,0,-0.6149,-0.6123,-0.6125,-0.6096,-0.6089,-0.6096,-0.607,-0.6072,-0.6052,-0.6051,-0.6049,-0.6017,-0.6011,-0.5982,-0.5968,-0.5953,-0.5965,-0.5953,-0.5972,-0.5968,-0.5988,-0.5987,-0.6055,-0.6063,-0.5986,-0.5987,-0.5987,0,-0.6182,-0.6186,-0.6158,-0.6156,-0.6145,-0.614,-0.6134,-0.6103,-0.6098,-0.6077,-0.6081,-0.6072,-0.6063,-0.6053,-0.6029,-0.6019,-0.6007,-0.6032,-0.6005,-0.6015,-0.6009,-0.6009,-0.601,-0.6038,-0.6039,-0.6039,-0.604,0,-0.6242,-0.6229,-0.6222,-0.6211,-0.6205,-0.6194,-0.6181,-0.6181,-0.6146,-0.6142,-0.6135,-0.6128,-0.6114,-0.6106,-0.6091,-0.6078,-0.6054,-0.6049,-0.6052,-0.6062,-0.6073,-0.6069,-0.5988,-0.6047,-0.6047,-0.6046,-0.6046,-0.6045,-0.629,-0.6294,-0.6275,-0.6268,-0.6256,-0.6245,-0.6245,-0.6226,-0.622,-0.6206,-0.6188,-0.6184,-0.6165,-0.6143,-0.6132,-0.6128,-0.6114,-0.6119,-0.6121,-0.6123,-0.6128,-0.6074,-0.6125,-0.6125,-0.6124,-0.6124,-0.6124,0,-0.635,-0.6337,-0.6331,-0.6315,-0.631,-0.6288,-0.6273,-0.627,-0.6267,-0.6252,-0.6244,-0.6237,-0.6228,-0.6204,-0.6193,-0.6195,-0.6184,-0.6193,-0.6193,-0.6191,-0.614,-0.6139,-0.6203,-0.6203,-0.6203,-0.6203,-0.6203,-0.6203,-0.6381,-0.6386,-0.637,-0.6369,-0.6355,-0.6351,-0.6345,-0.6335,-0.6323,-0.6316,-0.6309,-0.6293,-0.6275,-0.6263,-0.6254,-0.6247,-0.6245,-0.6259,-0.6248,-0.6202,-0.6194,-0.6187,-0.6185,-0.6258,-0.6258,-0.6299,-0.63,-0.63]}]]